Regional Weather Roundup
Issued by NWS

Home | Current Version | Previous Version | Graphics & Text | Print | Product List | Glossary On
Versions: 1 2 3 4 5 6 7 8 9 10 11 12 13 14 15 16 17 18 19 20 21 22 23 24 25 26 27 28 29 30 31 32 33 34 35 36 37 38 39 40 41 42 43 44 45 46 47 48 49 50
000
ASUS43 KLSX 261007
RWRMO
STLRWRMO ALL

WEATHER SUMMARY FOR MISSOURI
NATIONAL WEATHER SERVICE SPRINGFIELD MO
500 AM CDT MON JUN 26 2017

NOTE: "FAIR" INDICATES FEW OR NO CLOUDS BELOW 12,000 FEET WITH NO
       SIGNIFICANT WEATHER AND/OR OBSTRUCTIONS TO VISIBILITY.
       CURRENT SKY AND/OR WEATHER CONDITIONS ARE NOT AVAILABLE FOR
       CHILLICOTHE AND FARMINGTON.

MOZ001>031-035>038-043-044-053-054-261100-
...NORTHERN AND WESTERN MISSOURI...

CITY           SKY/WX    TMP DP  RH WIND       PRES   REMARKS
KANSAS CTY INT CLEAR     56  55  97 S7        30.21F
KANSAS C DTWN  CLEAR     56  53  90 SW5       30.21F
LEE`S SUMMIT     N/A     53  51  93 SW7       30.23S
ST JOSEPH      CLEAR     53  53 100 S5        30.19F
CHILLICOTHE      N/A     50  49  96 CALM      30.23R
KIRKSVILLE     CLEAR     51  48  89 W5        30.22R

$$
MOZ066>068-077>081-088>096-101>105-261100-
...SOUTHWEST MISSOURI...

CITY           SKY/WX    TMP DP  RH WIND       PRES   REMARKS
SPRINGFIELD    CLOUDY    62  57  83 NE7       30.26R
JOPLIN         CLOUDY    65  56  72 E6        30.24F
BRANSON          N/A     59  57  94 CALM      30.25R

$$
MOZ032>034-039>042-045>050-055>058-069>072-261100-
...CENTRAL MISSOURI...

CITY           SKY/WX    TMP DP  RH WIND       PRES   REMARKS
COLUMBIA       CLEAR     52  50  93 SW3       30.22S
JEFFERSON CITY CLEAR     54  50  86 CALM      30.23S
ROLLA          CLEAR     54  49  83 CALM      30.22S
SEDALIA        CLEAR     54  53  97 SW8       30.24S
WHITEMAN AFB   CLEAR     52  52 100 SW3       30.22S
WARRENSBURG    CLEAR     50  46  87 CALM      30.23S
OSAGE BEACH    CLEAR     57  51  80 S5        30.25S

$$
MOZ051-052-059>065-261100-
...EAST CENTRAL MISSOURI...

CITY           SKY/WX    TMP DP  RH WIND       PRES   REMARKS
ST LOUIS INTL  PTCLDY    61  51  70 W3        30.22R
SPIRIT OF STL  CLEAR     53  51  93 CALM      30.21R
ST CHARLES     CLEAR     54  51  90 S3        30.21R

$$
MOZ072>076-082>087-097>100-106>115-261100-
...SOUTH CENTRAL AND SOUTHEAST MISSOURI...

CITY           SKY/WX    TMP DP  RH WIND       PRES   REMARKS
CAPE GIRARDEAU MOCLDY    63  59  87 W3        30.20R
FARMINGTON     CLEAR     56  52  86 SW3       30.23S
POPLAR BLUFF   CLOUDY    67  60  78 CALM      30.20R
WEST PLAINS    CLOUDY    65  52  62 NW3       30.25R

$$




USA.gov is the U.S. government's official web portal to all federal, state and local government web resources and services.